Location: Alphen
(52.1351°N, 4.6549°E)
Time: 08:04:54
(UTC+00:00)

NOSS 5 (C) - Visible Passes

Search period start: 09 May 2021 00:00
Search period end: 19 May 2021 00:00
Orbit: 378 x 1725 km, 63.3° (Epoch: 08 May)

Date Brightness Start Highest point End Pass type
(mag) Time Alt. Az. Time Alt. Az. Time Alt. Az.
11 May 6.7 03:12:02 10° S 03:15:37 23° SE 03:18:31 10° ENE visible
12 May 7.6 02:14:41 10° SE 02:15:30 10° ESE 02:16:16 10° ESE visible
13 May 6.1 03:00:21 10° S 03:04:20 31° SE 03:07:28 10° ENE visible
14 May 7.2 02:01:41 10° SSE 02:04:09 15° ESE 02:06:18 10° E visible
15 May 5.5 02:48:50 10° SSW 02:53:02 43° SE 02:56:18 10° ENE visible
16 May 6.7 01:49:49 11° S 01:52:50 20° SE 01:55:32 10° ENE visible
17 May 5.0 02:37:33 11° SSW 02:41:45 60° SE 02:45:03 10° NE visible
18 May 6.2 01:38:59 16° S 01:41:30 26° SE 01:44:31 10° ENE visible
